Weather History for Wasilla, AK

Change the Weather History Date:

Friday, November 2, 2012

  Actual Average Record
Temperature  
Mean Temperature 30 °F -  
Max Temperature 33 °F 34 °F 56 °F (1986)
Min Temperature 26 °F 18 °F -11 °F (1985)
Degree Days  
Heating Degree Days 36    
Moisture  
Dew Point 4 °F    
Average Humidity 34    
Maximum Humidity 47    
Minimum Humidity 25    
Precipitation  
Precipitation 0.00 in - - ()
Sea Level Pressure  
Sea Level Pressure 29.38 in    
Wind  
Wind Speed 19 mph (NE)    
Max Wind Speed 28 mph    
Max Gust Speed 40 mph    
Visibility 10 miles    
Events      
Averages and records for this station are not official NWS values.
T = Trace of Precipitation, MM = Missing Value Source: NWS Daily Summary

Daily Weather History Graph

Daily Weather History Graph

Search for Another Location

Airport:

Trip Planner

Search our weather history database for the weather conditions in past years. The results will help you decide how hot, cold, wet, or windy it might be!

Date:

Astronomy

Nov. 02, 2012 Rise Set
Actual Time 9:32 AM AKDT 5:50 PM AKDT
Civil Twilight 8:43 AM AKDT 6:38 PM AKDT
Nautical Twilight 7:51 AM AKDT 7:30 PM AKDT
Astronomical Twilight 7:00 AM AKDT 8:21 PM AKDT
Moon 8:04 PM AKDT (11/2) 1:43 PM AKDT (11/2)
Length of Visible Light 9h 54m
Length of Day
8h 17m
Waning Gibbous, 86% of the Moon is Illuminated
Nov 2
Waning Gibbous
Nov 6
Last Quarter
Nov 13
New
Nov 20
First Quarter
Nov 28
Full

Hourly Weather History & Observations

Time (AKDT) Temp. Windchill Dew Point Humidity Pressure Visibility Wind Dir Wind Speed Gust Speed Precip Events Conditions
12:16 AM 26.6 °F 15.2 °F -0.4 °F 31% 29.66 in 10.0 mi NE 13.8 mph 24.2 mph N/A   Clear
12:36 AM 26.6 °F 13.8 °F -0.4 °F 31% 29.65 in 10.0 mi NE 17.3 mph 25.3 mph N/A   Clear
12:56 AM 26.6 °F 14.3 °F 1.4 °F 34% 29.64 in 10.0 mi NE 16.1 mph 23.0 mph N/A   Clear
1:16 AM 26.6 °F 15.2 °F -0.4 °F 31% 29.62 in 10.0 mi NE 13.8 mph 24.2 mph N/A   Clear
1:36 AM 28.4 °F 17.5 °F 1.4 °F 31% 29.61 in 10.0 mi NE 13.8 mph 21.9 mph N/A   Clear
1:56 AM 28.4 °F 17.0 °F 1.4 °F 31% 29.60 in 10.0 mi NE 15.0 mph 21.9 mph N/A   Clear
2:16 AM 28.4 °F 18.5 °F -0.4 °F 29% 29.59 in 10.0 mi NE 11.5 mph 25.3 mph N/A   Clear
2:36 AM 30.2 °F 18.9 °F 1.4 °F 29% 29.58 in 10.0 mi NNE 16.1 mph 27.6 mph N/A   Clear
2:56 AM 30.2 °F 18.9 °F -0.4 °F 27% 29.56 in 10.0 mi NE 16.1 mph 28.8 mph N/A   Clear
3:16 AM 30.2 °F 17.8 °F -0.4 °F 27% 29.56 in 10.0 mi NE 19.6 mph 26.5 mph N/A   Mostly Cloudy
3:36 AM 30.2 °F 18.1 °F -0.4 °F 27% 29.54 in 10.0 mi NE 18.4 mph 29.9 mph N/A   Mostly Cloudy
3:56 AM 30.2 °F 17.8 °F -0.4 °F 27% 29.52 in 10.0 mi NE 19.6 mph 27.6 mph N/A   Scattered Clouds
4:16 AM 32.0 °F 20.1 °F -0.4 °F 25% 29.51 in 10.0 mi NE 19.6 mph 31.1 mph N/A   Mostly Cloudy
4:36 AM - - - N/A% 29.49 in 10.0 mi NE 27.6 mph 38.0 mph N/A   Scattered Clouds
4:56 AM - - - N/A% 29.48 in 10.0 mi NE 23.0 mph 39.1 mph N/A   Scattered Clouds
5:16 AM - - - N/A% 29.48 in 10.0 mi NE 27.6 mph 34.5 mph N/A   Clear
5:36 AM 30.2 °F 17.4 °F -0.4 °F 27% 29.48 in 10.0 mi ENE 20.7 mph 35.7 mph N/A   Clear
5:56 AM - - - N/A% 29.46 in 10.0 mi ENE 21.9 mph 31.1 mph N/A   Clear
6:16 AM - - - N/A% 29.45 in 10.0 mi NE 21.9 mph 34.5 mph N/A   Clear
6:36 AM 30.2 °F 15.9 °F -0.4 °F 27% 29.44 in 10.0 mi ENE 26.5 mph 39.1 mph N/A   Clear
6:56 AM 30.2 °F 17.4 °F -0.4 °F 27% 29.44 in 10.0 mi NE 20.7 mph 34.5 mph N/A   Clear
7:16 AM 30.2 °F 17.1 °F -0.4 °F 27% 29.43 in 10.0 mi NE 21.9 mph 32.2 mph N/A   Clear
7:36 AM - - - N/A% 29.43 in 10.0 mi ENE 27.6 mph 40.3 mph N/A   Clear
7:56 AM - - - N/A% 29.40 in 10.0 mi ENE 25.3 mph 36.8 mph N/A   Clear
8:16 AM - - - N/A% 29.39 in 10.0 mi NE 25.3 mph 33.4 mph N/A   Clear
8:36 AM - - - N/A% 29.39 in 10.0 mi NE 24.2 mph 36.8 mph N/A   Clear
8:56 AM 30.2 °F 17.1 °F -0.4 °F 27% 29.38 in 10.0 mi NE 21.9 mph 35.7 mph N/A   Clear
9:16 AM 30.2 °F 17.1 °F -0.4 °F 27% 29.38 in 10.0 mi NE 21.9 mph 33.4 mph N/A   Clear
9:36 AM - - - N/A% 29.37 in 10.0 mi NE 26.5 mph 35.7 mph N/A   Scattered Clouds
9:56 AM - - - N/A% 29.36 in 10.0 mi NE 26.5 mph 36.8 mph N/A   Partly Cloudy
10:16 AM - - - N/A% 29.35 in 10.0 mi NE 26.5 mph 39.1 mph N/A   Partly Cloudy
10:36 AM 30.2 °F 16.8 °F -0.4 °F 27% 29.34 in 10.0 mi NE 23.0 mph 36.8 mph N/A   Clear
10:56 AM 32.0 °F 18.9 °F -0.4 °F 25% 29.33 in 10.0 mi NE 24.2 mph 33.4 mph N/A   Clear
11:16 AM 32.0 °F 20.1 °F -0.4 °F 25% 29.32 in 10.0 mi NE 19.6 mph 36.8 mph N/A   Clear
11:36 AM 32.0 °F 19.5 °F -0.4 °F 25% 29.33 in 10.0 mi NE 21.9 mph 33.4 mph N/A   Clear
11:56 AM 32.0 °F 19.2 °F 1.4 °F 27% 29.31 in 10.0 mi NE 23.0 mph 33.4 mph N/A   Clear
12:16 PM 32.0 °F 19.5 °F 1.4 °F 27% 29.31 in 10.0 mi ENE 21.9 mph 35.7 mph N/A   Clear
12:36 PM - - - N/A% 29.30 in 10.0 mi ENE 24.2 mph 35.7 mph N/A   Scattered Clouds
12:56 PM - - - N/A% 29.28 in 10.0 mi ENE 20.7 mph 33.4 mph N/A   Partly Cloudy
1:16 PM - - - N/A% 29.26 in 10.0 mi ENE 21.9 mph 32.2 mph N/A   Scattered Clouds
1:36 PM - - - N/A% 29.26 in 10.0 mi NE 26.5 mph 38.0 mph N/A   Mostly Cloudy
1:56 PM 33.8 °F 20.8 °F 1.4 °F 25% 29.27 in 10.0 mi ENE 26.5 mph 36.8 mph N/A   Mostly Cloudy
2:16 PM 33.8 °F 22.2 °F 1.4 °F 25% 29.26 in 10.0 mi ENE 20.7 mph 29.9 mph N/A   Overcast
2:36 PM 33.8 °F 23.2 °F 3.2 °F 28% 29.25 in 10.0 mi NE 17.3 mph 27.6 mph N/A   Mostly Cloudy
2:56 PM 33.8 °F 22.2 °F 3.2 °F 28% 29.25 in 10.0 mi NE 20.7 mph 33.4 mph N/A   Scattered Clouds
3:16 PM - - - N/A% 29.25 in 10.0 mi ENE 25.3 mph 35.7 mph N/A   Partly Cloudy
3:36 PM - - - N/A% 29.25 in 10.0 mi NE 24.2 mph 39.1 mph N/A   Partly Cloudy
3:56 PM 32.0 °F 18.4 °F 5.0 °F 32% 29.24 in 10.0 mi NE 26.5 mph 34.5 mph N/A   Clear
4:16 PM 32.0 °F 19.2 °F 6.8 °F 35% 29.25 in 10.0 mi NE 23.0 mph 34.5 mph N/A   Clear
4:36 PM 32.0 °F 21.2 °F 6.8 °F 35% 29.25 in 10.0 mi NE 16.1 mph 32.2 mph N/A   Clear
4:56 PM 32.0 °F 19.8 °F 8.6 °F 38% 29.26 in 10.0 mi ENE 20.7 mph 31.1 mph N/A   Clear
5:16 PM 30.2 °F 17.1 °F 8.6 °F 40% 29.26 in 10.0 mi ENE 21.9 mph 27.6 mph N/A   Clear
5:36 PM 30.2 °F 17.8 °F 8.6 °F 40% 29.27 in 10.0 mi ENE 19.6 mph 27.6 mph N/A   Clear
5:56 PM 30.2 °F 20.2 °F 8.6 °F 40% 29.28 in 10.0 mi ENE 12.7 mph 20.7 mph N/A   Clear
6:16 PM 30.2 °F 18.9 °F 8.6 °F 40% 29.30 in 10.0 mi ENE 16.1 mph 24.2 mph N/A   Partly Cloudy
6:36 PM 30.2 °F 19.8 °F 8.6 °F 40% 29.29 in 10.0 mi ENE 13.8 mph 23.0 mph N/A   Partly Cloudy
6:56 PM 30.2 °F 17.4 °F 8.6 °F 40% 29.31 in 10.0 mi ENE 20.7 mph 29.9 mph N/A   Partly Cloudy
7:16 PM 30.2 °F 16.8 °F 10.4 °F 44% 29.32 in 10.0 mi ENE 23.0 mph 28.8 mph N/A   Clear
7:36 PM 30.2 °F 19.3 °F 12.2 °F 47% 29.32 in 10.0 mi ENE 15.0 mph 25.3 mph N/A   Clear
7:56 PM 30.2 °F 19.8 °F 12.2 °F 47% 29.31 in 10.0 mi ENE 13.8 mph 21.9 mph N/A   Clear
8:16 PM 30.2 °F 19.8 °F 10.4 °F 44% 29.31 in 10.0 mi ENE 13.8 mph 24.2 mph N/A   Clear
8:36 PM 28.4 °F 16.2 °F 8.6 °F 43% 29.31 in 10.0 mi ENE 17.3 mph 31.1 mph N/A   Mostly Cloudy
8:56 PM 28.4 °F 16.2 °F 8.6 °F 43% 29.31 in 10.0 mi ENE 17.3 mph 27.6 mph N/A   Partly Cloudy
9:16 PM 28.4 °F 17.0 °F 8.6 °F 43% 29.31 in 10.0 mi ENE 15.0 mph 24.2 mph N/A   Clear
9:36 PM 28.4 °F 18.5 °F 8.6 °F 43% 29.31 in 10.0 mi East 11.5 mph 20.7 mph N/A   Clear
9:56 PM 28.4 °F 15.8 °F 8.6 °F 43% 29.33 in 10.0 mi ENE 18.4 mph 25.3 mph N/A   Clear
10:16 PM 28.4 °F 15.8 °F 8.6 °F 43% 29.33 in 10.0 mi NE 18.4 mph 25.3 mph N/A   Clear
10:36 PM 28.4 °F 19.1 °F 8.6 °F 43% 29.34 in 10.0 mi NE 10.4 mph - N/A   Clear
10:56 PM 26.6 °F 15.7 °F 8.6 °F 47% 29.34 in 10.0 mi NE 12.7 mph - N/A   Clear
11:16 PM 26.6 °F 15.7 °F 8.6 °F 47% 29.34 in 10.0 mi NE 12.7 mph - N/A   Clear
11:36 PM 26.6 °F 15.2 °F 8.6 °F 47% 29.34 in 10.0 mi NE 13.8 mph - N/A   Clear
11:56 PM 26.6 °F 16.8 °F 8.6 °F 47% 29.34 in 10.0 mi NE 10.4 mph 16.1 mph N/A   Clear